This demonstration page uses our WeatherBlox Daily Observations layout. Learn more.

39.92423, -83.80882

Hourly Observations for June 8, 2020

Temp ( °F °C ) Dew Point ( °F °C ) Humidity (%) Winds ( mph kmh ) Pressure ( in mb ) Visibility ( mi km ) Precip ( " mm )
12:56 am 00:56 Clear 61 16.1 49 9.4 65 65 ENE 8 13 30.06 1018 10 16.0934 0.59 14.986
1:56 am 01:56 Clear 60 15.6 49 9.4 67 67 ENE 8 13 30.06 1018 10 16.0934 1.51 38.354
2:56 am 02:56 Clear 59 15 51 10.6 75 75 E 7 11 30.04 1017 10 16.0934 0.43 10.922
3:56 am 03:56 Clear 58 14.4 51 10.6 78 78 E 6 9 30.02 1017 10 16.0934 0 0
4:56 am 04:56 Clear 57 13.9 50 10 78 78 E 6 9 30.02 1017 10 16.0934 0.17 4.318
5:56 am 05:56 Clear 57 13.9 51 10.6 81 81 E 8 13 30.04 1017 10 16.0934 0.29 7.366
6:56 am 06:56 Sunny 59 15 51 10.6 75 75 E 8 13 30.06 1018 10 16.0934 0.03 0.762
7:56 am 07:56 Sunny 63 17.2 51 10.6 65 65 E 12 19 30.08 1019 10 16.0934 0.89 22.606
8:56 am 08:56 Sunny 68 20 52 11.1 57 57 ESE 13 20 30.08 1019 10 16.0934 0.72 18.288
9:56 am 09:56 Sunny 71 21.7 53 11.7 53 53 ESE 10 17 30.08 1019 10 16.0934 0 0
10:56 am 10:56 Sunny 74 23.3 55 12.8 52 52 E 10 17 30.07 1018 10 16.0934 0.05 1.27
11:56 am 11:56 Sunny 77 25 55 12.8 47 47 E 10 17 30.06 1018 9 14.48406 0.08 2.032
12:56 pm 12:56 Sunny 79 26.1 55 12.8 44 44 E 10 17 30.05 1018 10 16.0934 0.01 0.254
1:56 pm 13:56 Sunny 81 27.2 53 11.7 38 38 ESE 13 20 30.04 1017 10 16.0934 0 0
2:56 pm 14:56 Sunny 83 28.3 53 11.7 36 36 E 10 17 30.03 1017 10 16.0934 0.08 2.032
3:56 pm 15:56 Sunny 84 28.9 53 11.7 34 34 ESE 8 13 30 1016 10 16.0934 0.02 0.508
4:56 pm 16:56 Sunny 84 28.9 52 11.1 33 33 ESE 9 15 29.98 1015 10 16.0934 0.02 0.508
5:56 pm 17:56 Sunny 84 28.9 54 12.2 36 36 SE 8 13 29.97 1015 10 16.0934 0.05 1.27
6:56 pm 18:56 Sunny 81 27.2 53 11.7 38 38 ESE 10 17 29.95 1014 10 16.0934 0.02 0.508
7:56 pm 19:56 Sunny 77 25 53 11.7 43 43 E 8 13 29.94 1014 10 16.0934 0.22 5.588
8:56 pm 20:56 Sunny 74 23.3 53 11.7 48 48 E 7 11 29.93 1014 10 16.0934 0.09 2.286
9:56 pm 21:56 Clear 70 21.1 54 12.2 57 57 E 8 13 29.93 1014 10 16.0934 0.59 14.986
10:56 pm 22:56 Clear 69 20.6 53 11.7 57 57 ESE 8 13 29.95 1014 10 16.0934 0.33 8.382
11:56 pm 23:56 Clear 70 21.1 52 11.1 53 53 ESE 8 13 29.96 1015 10 16.0934 0.05 1.27

Powered by AerisWeather